| time (UTC) | temp C | wind direction | speed KPH | gust KPH | rain 1hr cm | rain 24hr cm | rain mn cm | humidity % | barometer mb |
| 20260505191510 | 11 | 248 | 0.0 | 0.0 | 0.00 | 1.83 | 0.43 | 89 | 1058.5 |
| 20260505190012 | 11 | 182 | 0.0 | 0.0 | 0.00 | 1.83 | 0.43 | 89 | 1058.4 |
| 20260505184516 | 11 | 181 | 0.0 | 0.0 | 0.00 | 1.88 | 0.43 | 89 | 1058.4 |
| 20260505183008 | 11 | 22 | 0.0 | 0.0 | 0.00 | 1.88 | 0.43 | 89 | 1058.4 |
| 20260505181509 | 11 | 284 | 0.0 | 0.0 | 0.00 | 1.88 | 0.43 | 89 | 1058.4 |
| 20260505180007 | 11 | 295 | 0.0 | 1.6 | 0.00 | 1.88 | 0.43 | 89 | 1058.4 |
| 20260505174506 | 11 | 103 | 0.0 | 1.6 | 0.00 | 1.98 | 0.43 | 88 | 1058.3 |
| 20260505173006 | 11 | 119 | 0.0 | 3.2 | 0.00 | 1.98 | 0.43 | 88 | 1058.4 |
| 20260505171507 | 11 | 240 | 0.0 | 4.8 | 0.00 | 1.98 | 0.43 | 88 | 1058.4 |
| 20260505170007 | 11 | 245 | 0.0 | 4.8 | 0.00 | 1.98 | 0.43 | 89 | 1058.4 |
| 20260505164606 | 11 | 101 | 0.0 | 6.4 | 0.00 | 3.48 | 0.43 | 89 | 1058.5 |
| 20260505163004 | 11 | 106 | 1.6 | 9.7 | 0.00 | 3.48 | 0.43 | 89 | 1058.4 |
| 20260505161502 | 12 | 281 | 0.0 | 4.8 | 0.00 | 3.48 | 0.43 | 90 | 1058.5 |
| 20260505153059 | 11 | 94 | 0.0 | 3.2 | 0.00 | 3.48 | 0.43 | 90 | 1058.7 |
| 20260505151557 | 11 | 191 | 0.0 | 8.0 | 0.00 | 3.48 | 0.43 | 90 | 1058.8 |
| 20260505124546 | 11 | 53 | 0.0 | 4.8 | 0.00 | 3.48 | 0.43 | 92 | 1059.5 |
| 20260505123044 | 11 | 217 | 0.0 | 4.8 | 0.00 | 3.48 | 0.43 | 93 | 1059.5 |
| 20260505121548 | 11 | 257 | 1.6 | 9.7 | 0.00 | 3.48 | 0.43 | 93 | 1059.5 |
| 20260505120044 | 11 | 107 | 0.0 | 9.7 | 0.03 | 3.48 | 0.43 | 93 | 1059.5 |
| 20260505114542 | 11 | 103 | 1.6 | 6.4 | 0.03 | 3.48 | 0.43 | 94 | 1059.6 |
| 20260505113044 | 10 | 340 | 0.0 | 8.0 | 0.03 | 3.48 | 0.43 | 94 | 1059.7 |
| 20260505111545 | 10 | 304 | 0.0 | 6.4 | 0.03 | 3.48 | 0.43 | 94 | 1059.7 |
| 20260505101537 | 10 | 301 | 1.6 | 6.4 | 0.00 | 3.45 | 0.43 | 94 | 1059.9 |
| 20260505100036 | 10 | 259 | 1.6 | 8.0 | 0.00 | 3.45 | 0.43 | 94 | 1059.8 |
| 20260505094535 | 10 | 217 | 1.6 | 8.0 | 0.00 | 3.45 | 0.43 | 94 | 1059.8 |
| 20260505093045 | 10 | 266 | 0.0 | 3.2 | 0.00 | 3.45 | 0.43 | 95 | 1059.9 |
| 20260505091535 | 10 | 103 | 1.6 | 6.4 | 0.00 | 3.45 | 0.43 | 95 | 1060.0 |
| 20260505090034 | 10 | 258 | 0.0 | 11.3 | 0.00 | 3.45 | 0.43 | 95 | 1059.9 |
| 20260505084535 | 10 | 239 | 0.0 | 6.4 | 0.00 | 3.45 | 0.43 | 95 | 1060.0 |
| 20260505083039 | 10 | 295 | 1.6 | 6.4 | 0.00 | 3.45 | 0.43 | 95 | 1060.0 |
| 20260505081532 | 10 | 303 | 1.6 | 9.7 | 0.00 | 3.45 | 0.43 | 95 | 1059.8 |
| 20260505080034 | 10 | 321 | 3.2 | 8.0 | 0.00 | 3.45 | 0.43 | 95 | 1060.0 |
| 20260505074530 | 10 | 332 | 0.0 | 6.4 | 0.00 | 3.45 | 0.43 | 95 | 1060.0 |
| 20260505073029 | 10 | 285 | 0.0 | 6.4 | 0.00 | 3.45 | 0.43 | 95 | 1059.9 |
| 20260505071527 | 10 | 280 | 1.6 | 8.0 | 0.00 | 3.45 | 0.43 | 95 | 1059.9 |
| 20260505070027 | 10 | 247 | 1.6 | 14.5 | 0.00 | 3.45 | 0.43 | 95 | 1059.8 |
| 20260505064525 | 10 | 283 | 1.6 | 12.9 | 0.00 | 3.45 | 0.43 | 95 | 1059.8 |
| 20260505063024 | 10 | 309 | 0.0 | 6.4 | 0.00 | 3.45 | 0.43 | 95 | 1059.9 |
| 20260505061524 | 10 | 308 | 3.2 | 8.0 | 0.00 | 3.45 | 0.43 | 95 | 1060.0 |
| 20260505060022 | 10 | 272 | 0.0 | 8.0 | 0.00 | 3.45 | 0.43 | 95 | 1060.0 |
| 20260505054526 | 10 | 97 | 1.6 | 6.4 | 0.00 | 3.45 | 0.43 | 95 | 1060.1 |
| 20260505053025 | 10 | 303 | 0.0 | 6.4 | 0.00 | 3.45 | 0.43 | 95 | 1060.0 |
| 20260505051522 | 11 | 125 | 1.6 | 9.7 | 0.00 | 3.45 | 0.43 | 95 | 1059.8 |
| 20260505041516 | 11 | 303 | 0.0 | 8.0 | 0.00 | 3.45 | 0.43 | 95 | 1059.9 |
| 20260505040030 | 11 | 297 | 0.0 | 8.0 | 0.05 | 3.45 | 0.43 | 95 | 1060.0 |
| 20260505034513 | 11 | 69 | 0.0 | 8.0 | 0.13 | 3.45 | 0.43 | 95 | 1060.0 |
| 20260505033015 | 11 | 243 | 0.0 | 4.8 | 0.15 | 3.45 | 0.43 | 95 | 1059.9 |
| 20260505031512 | 11 | 318 | 1.6 | 9.7 | 0.15 | 3.45 | 0.43 | 95 | 1060.0 |
| 20260505030016 | 11 | 208 | 0.0 | 6.4 | 0.10 | 3.43 | 0.38 | 95 | 1059.9 |
| 20260505024510 | 11 | 110 | 0.0 | 6.4 | 0.03 | 3.33 | 0.30 | 95 | 1060.0 |
| 20260505023008 | 11 | 316 | 0.0 | 8.0 | 0.00 | 3.33 | 0.28 | 95 | 1060.1 |
| 20260505021608 | 11 | 286 | 1.6 | 9.7 | 0.00 | 3.33 | 0.28 | 95 | 1060.0 |
| 20260505020008 | 12 | 293 | 3.2 | 9.7 | 0.00 | 3.33 | 0.28 | 95 | 1060.1 |
| 20260505014505 | 12 | 58 | 3.2 | 11.3 | 0.00 | 3.33 | 0.28 | 95 | 1060.2 |
| 20260505013003 | 12 | 325 | 1.6 | 8.0 | 0.00 | 3.33 | 0.28 | 95 | 1060.0 |
| 20260505011619 | 12 | 323 | 1.6 | 11.3 | 0.00 | 3.33 | 0.28 | 95 | 1060.0 |
| 20260505010107 | 12 | 281 | 0.0 | 6.4 | 0.00 | 3.33 | 0.28 | 95 | 1060.2 |
| 20260505004600 | 12 | 311 | 1.6 | 9.7 | 0.00 | 3.33 | 0.28 | 95 | 1060.3 |
| 20260505003056 | 12 | 310 | 0.0 | 6.4 | 0.00 | 3.33 | 0.28 | 95 | 1060.3 |
| 20260505001554 | 12 | 301 | 0.0 | 6.4 | 0.03 | 3.33 | 0.28 | 95 | 1060.4 |
| 20260505000100 | 12 | 269 | 0.0 | 8.0 | 0.05 | 3.33 | 0.28 | 95 | 1060.6 |
| 20260504234603 | 13 | 326 | 0.0 | 4.8 | 0.10 | 3.33 | 0.28 | 95 | 1060.6 |
| 20260504233049 | 13 | 26 | 0.0 | 4.8 | 0.15 | 3.33 | 0.28 | 95 | 1060.5 |
| 20260504231547 | 13 | 37 | 0.0 | 4.8 | 0.18 | 3.30 | 0.25 | 95 | 1060.6 |
| 20260504230045 | 13 | 19 | 0.0 | 3.2 | 0.23 | 3.25 | 0.23 | 95 | 1060.7 |
| 20260504224543 | 13 | 286 | 0.0 | 0.0 | 0.30 | 3.23 | 0.18 | 95 | 1060.8 |
| 20260504223043 | 13 | 354 | 0.0 | 0.0 | 0.38 | 3.15 | 0.13 | 95 | 1060.9 |
| 20260504221542 | 13 | 354 | 0.0 | 0.0 | 0.43 | 3.12 | 0.08 | 95 | 1061.0 |
| 20260504220047 | 13 | 354 | 0.0 | 0.0 | 0.48 | 3.05 | 0.00 | 95 | 1061.2 |
| 20260504214538 | 13 | 354 | 0.0 | 0.0 | 0.61 | 2.90 | 2.90 | 95 | 1061.3 |
| 20260504213052 | 13 | 355 | 0.0 | 0.0 | 0.58 | 2.77 | 2.77 | 95 | 1061.4 |
| 20260504211541 | 13 | 354 | 0.0 | 0.0 | 0.56 | 2.69 | 2.69 | 95 | 1061.5 |
| 20260504210036 | 13 | 354 | 0.0 | 0.0 | 0.53 | 2.57 | 2.57 | 95 | 1061.6 |
| 20260504204541 | 13 | 352 | 0.0 | 0.0 | 0.33 | 2.31 | 2.31 | 94 | 1061.6 |
| 20260504203035 | 13 | 64 | 0.0 | 0.0 | 0.20 | 2.21 | 2.21 | 94 | 1061.4 |
| 20260504201534 | 13 | 68 | 0.0 | 0.0 | 0.25 | 2.11 | 2.11 | 94 | 1061.4 |
| 20260504200034 | 13 | 68 | 0.0 | 0.0 | 0.36 | 2.03 | 2.03 | 94 | 1061.5 |
| 20260504194533 | 13 | 51 | 0.0 | 0.0 | 0.33 | 2.03 | 2.01 | 94 | 1061.4 |
| 20260504193041 | 13 | 212 | 0.0 | 0.0 | 0.33 | 2.03 | 2.01 | 94 | 1061.4 |